Location: Grossmotten
(48.5500°N, 15.3833°E)
Time: 15:25:40
(UTC+00:00)

Cosmos 2112 Rocket - Pass Details

Date: 15 November 2019
Orbit: 755 x 788 km, 74.1° (Epoch: 14 December)

Event Time Altitude Azimuth Distance (km) Brightness Sun altitude
Exits shadow 04:00:26 39° 303° (WNW) 1,158 4.5 -20.6°
Maximum altitude 04:02:00 53° 254° (WSW) 959 4.1 -20.4°
Drops below altitude 10° 04:07:09 10° 178° (S) 2,337 6.6 -19.5°
Sets 04:09:35 0° 174° (S) 3,264 7.4 -19.1°
